TimeMST,TemperatureF,Dew PointF,Humidity,Sea Level PressureIn,VisibilityMPH,Wind Direction,Wind SpeedMPH,Gust SpeedMPH,PrecipitationIn,Events,Conditions,WindDirDegrees,DateUTC
12:53 AM,-4.0,-9.9,76,30.53,10.0,Calm,Calm,-,N/A,,Clear,0,2013-01-16 07:53:00
1:53 AM,-4.0,-9.9,76,30.51,10.0,Calm,Calm,-,N/A,,Clear,0,2013-01-16 08:53:00
2:53 AM,-4.0,-9.9,76,30.51,10.0,Calm,Calm,-,N/A,,Clear,0,2013-01-16 09:53:00
3:53 AM,-0.9,-9.0,69,30.49,10.0,Calm,Calm,-,N/A,,Clear,0,2013-01-16 10:53:00
4:53 AM,-4.0,-9.9,76,30.51,10.0,SSW,4.6,-,N/A,,Clear,200,2013-01-16 11:53:00
5:53 AM,-2.9,-9.0,75,30.54,10.0,Calm,Calm,-,N/A,,Clear,0,2013-01-16 12:53:00
6:53 AM,-4.0,-9.0,79,30.57,10.0,Calm,Calm,-,N/A,,Clear,0,2013-01-16 13:53:00
7:53 AM,-5.1,-9.9,80,30.62,10.0,Calm,Calm,-,N/A,,Clear,0,2013-01-16 14:53:00
8:53 AM,3.0,-5.1,69,30.62,10.0,Calm,Calm,-,N/A,,Clear,0,2013-01-16 15:53:00
9:53 AM,10.9,-2.0,56,30.58,10.0,Calm,Calm,-,N/A,,Clear,0,2013-01-16 16:53:00
10:53 AM,19.0,1.9,47,30.55,10.0,Calm,Calm,-,N/A,,Clear,0,2013-01-16 17:53:00
11:53 AM,25.0,5.0,43,30.50,10.0,Calm,Calm,-,N/A,,Clear,0,2013-01-16 18:53:00
12:53 PM,28.0,7.0,41,30.46,10.0,WSW,4.6,-,N/A,,Clear,250,2013-01-16 19:53:00
1:53 PM,32.0,8.1,37,30.43,10.0,Calm,Calm,-,N/A,,Clear,0,2013-01-16 20:53:00
2:53 PM,33.1,10.0,38,30.41,10.0,SSW,4.6,-,N/A,,Clear,200,2013-01-16 21:53:00
3:53 PM,33.1,10.0,38,30.41,10.0,SSW,5.8,-,N/A,,Clear,210,2013-01-16 22:53:00
4:53 PM,33.1,10.0,38,30.43,10.0,SSE,4.6,-,N/A,,Clear,150,2013-01-16 23:53:00
5:53 PM,25.0,8.1,49,30.49,10.0,East,10.4,-,N/A,,Clear,100,2013-01-17 00:53:00
6:53 PM,23.0,6.1,48,30.51,10.0,ESE,8.1,-,N/A,,Clear,110,2013-01-17 01:53:00
7:53 PM,16.0,5.0,62,30.57,10.0,Calm,Calm,-,N/A,,Clear,0,2013-01-17 02:53:00
8:53 PM,12.9,5.0,71,30.56,10.0,Calm,Calm,-,N/A,,Clear,0,2013-01-17 03:53:00
9:53 PM,8.1,1.9,76,30.56,10.0,Calm,Calm,-,N/A,,Clear,0,2013-01-17 04:53:00
10:53 PM,3.9,-0.0,84,30.55,10.0,Calm,Calm,-,N/A,,Clear,0,2013-01-17 05:53:00
11:53 PM,3.0,-0.9,84,30.54,10.0,Calm,Calm,-,N/A,,Clear,0,2013-01-17 06:53:00